Tracking 25744 objects as of 24-Jun-2022
HD Live streaming from Space Station
objects crossing your sky now

CERES 3

Track CERES 3 now!
10-day predictions


NORAD ID: 49466
Int'l Code: 2021-105C
Perigee: 678.8 km
Apogee: 679.6 km
Inclination: 75.0 °
Period: 98.2 minutes
Semi major axis: 7050 km
RCS: Unknown
Launch date: November 16, 2021
Source: France (FR)
Launch site: FRENCH GUIANA (FRGUI)
aabbcc
Your satellite tracking list
Your tracking list is empty




NASA's NSSDC Master Catalog

Two Line Element Set (TLE):
1 49466U 21105C   22173.97056302 0.00000340  00000-0  61261-4 0    05
2 49466  75.0041 110.6774 0000543  50.2972 309.7027 14.66563555    05
Source of the keplerian elements: McCants